Time,TemperatureF,DewpointF,PressureIn,WindDirection,WindDirectionDegrees,WindSpeedMPH,WindSpeedGustMPH,Humidity,HourlyPrecipIn,Conditions,Clouds,dailyrainin,SoftwareType,DateUTC
2013-03-14 00:14:00,-4.3,-18.0,30.41,East,99,0.0,2.0,53,0.00,,,0.00,weatherlink.com 1.10,2013-03-14 08:14:00,
2013-03-14 00:29:00,-4.4,-17.0,30.41,NW,314,0.0,4.0,54,0.00,,,0.00,weatherlink.com 1.10,2013-03-14 08:29:00,
2013-03-14 00:44:00,-4.4,-18.0,30.40,WNW,295,0.0,2.0,52,0.00,,,0.00,weatherlink.com 1.10,2013-03-14 08:44:00,
2013-03-14 01:00:00,-4.6,-18.0,30.40,East,90,0.0,2.0,53,0.00,,,0.00,weatherlink.com 1.10,2013-03-14 09:00:00,
2013-03-14 01:15:00,-4.4,-18.0,30.40,ESE,115,0.0,6.0,53,0.00,,,0.00,weatherlink.com 1.10,2013-03-14 09:15:00,
2013-03-14 01:30:00,-3.9,-18.0,30.39,SW,224,2.0,3.0,51,0.00,,,0.00,weatherlink.com 1.10,2013-03-14 09:30:00,
2013-03-14 01:45:00,-4.0,-18.0,30.39,East,79,0.0,3.0,50,0.00,,,0.00,weatherlink.com 1.10,2013-03-14 09:45:00,
2013-03-14 02:00:00,-4.0,-18.0,30.39,NNE,32,1.0,5.0,50,0.00,,,0.00,weatherlink.com 1.10,2013-03-14 10:00:00,
2013-03-14 02:30:00,-5.2,-18.0,30.39,ENE,77,0.0,3.0,53,0.00,,,0.00,weatherlink.com 1.10,2013-03-14 10:30:00,
2013-03-14 02:45:00,-5.2,-19.0,30.39,SW,236,0.0,2.0,52,0.00,,,0.00,weatherlink.com 1.10,2013-03-14 10:45:00,
2013-03-14 03:00:00,-5.4,-19.0,30.39,SE,127,1.0,2.0,53,0.00,,,0.00,weatherlink.com 1.10,2013-03-14 11:00:00,
2013-03-14 03:15:00,-6.3,-19.0,30.38,ENE,77,0.0,1.0,55,0.00,,,0.00,weatherlink.com 1.10,2013-03-14 11:15:00,
2013-03-14 03:30:00,-7.4,-19.0,30.38,East,79,0.0,1.0,57,0.00,,,0.00,weatherlink.com 1.10,2013-03-14 11:30:00,
2013-03-14 03:45:00,-8.1,-20.0,30.38,East,79,0.0,0.0,56,0.00,,,0.00,weatherlink.com 1.10,2013-03-14 11:45:00,
2013-03-14 04:00:00,-8.6,-19.0,30.37,East,95,0.0,1.0,59,0.00,,,0.00,weatherlink.com 1.10,2013-03-14 12:00:00,
2013-03-14 04:15:00,-8.1,-19.0,30.37,ENE,72,0.0,2.0,59,0.00,,,0.00,weatherlink.com 1.10,2013-03-14 12:15:00,
2013-03-14 04:31:00,-8.3,-19.0,30.37,ENE,72,0.0,0.0,60,0.00,,,0.00,weatherlink.com 1.10,2013-03-14 12:31:00,
2013-03-14 04:46:00,-8.7,-19.0,30.37,North,356,0.0,1.0,60,0.00,,,0.00,weatherlink.com 1.10,2013-03-14 12:46:00,
2013-03-14 05:46:00,-8.5,-19.0,30.36,NNE,20,0.0,0.0,61,0.00,,,0.00,weatherlink.com 1.10,2013-03-14 13:46:00,
2013-03-14 06:01:00,-9.1,-19.0,30.35,NNE,22,0.0,1.0,61,0.00,,,0.00,weatherlink.com 1.10,2013-03-14 14:01:00,
2013-03-14 06:16:00,-9.7,-20.0,30.35,NNE,21,0.0,0.0,61,0.00,,,0.00,weatherlink.com 1.10,2013-03-14 14:16:00,
2013-03-14 06:31:00,-9.9,-20.0,30.34,North,3,0.0,0.0,60,0.00,,,0.00,weatherlink.com 1.10,2013-03-14 14:31:00,
2013-03-14 06:46:00,-10.2,-20.0,30.34,NNE,23,0.0,1.0,62,0.00,,,0.00,weatherlink.com 1.10,2013-03-14 14:46:00,
2013-03-14 07:01:00,-10.6,-20.0,30.33,North,359,0.0,1.0,62,0.00,,,0.00,weatherlink.com 1.10,2013-03-14 15:01:00,
2013-03-14 07:16:00,-10.8,-20.0,30.33,North,351,0.0,1.0,64,0.00,,,0.00,weatherlink.com 1.10,2013-03-14 15:16:00,
2013-03-14 07:31:00,-10.4,-19.0,30.32,NNE,30,0.0,1.0,65,0.00,,,0.00,weatherlink.com 1.10,2013-03-14 15:31:00,
2013-03-14 07:47:00,-9.9,-19.0,30.32,NNE,23,0.0,1.0,64,0.00,,,0.00,weatherlink.com 1.10,2013-03-14 15:47:00,
2013-03-14 08:02:00,-9.3,-19.0,30.32,WNW,295,0.0,1.0,63,0.00,,,0.00,weatherlink.com 1.10,2013-03-14 16:02:00,
2013-03-14 08:17:00,-8.5,-19.0,30.32,WNW,288,0.0,1.0,61,0.00,,,0.00,weatherlink.com 1.10,2013-03-14 16:17:00,
2013-03-14 08:32:00,-8.4,-19.0,30.32,NNE,17,0.0,3.0,61,0.00,,,0.00,weatherlink.com 1.10,2013-03-14 16:32:00,
2013-03-14 08:47:00,-8.2,-19.0,30.33,NNW,347,0.0,1.0,60,0.00,,,0.00,weatherlink.com 1.10,2013-03-14 16:47:00,
2013-03-14 09:17:00,-7.6,-19.0,30.33,NNE,23,0.0,1.0,58,0.00,,,0.00,weatherlink.com 1.10,2013-03-14 17:17:00,
2013-03-14 09:32:00,-6.9,-19.0,30.33,NNE,23,0.0,0.0,57,0.00,,,0.00,weatherlink.com 1.10,2013-03-14 17:32:00,
2013-03-14 09:47:00,-5.6,-17.0,30.33,NNE,23,0.0,0.0,57,0.00,,,0.00,weatherlink.com 1.10,2013-03-14 17:47:00,
2013-03-14 10:02:00,-4.7,-16.0,30.33,North,11,0.0,1.0,57,0.00,,,0.00,weatherlink.com 1.10,2013-03-14 18:02:00,
2013-03-14 10:17:00,-3.8,-16.0,30.34,NNE,23,0.0,1.0,57,0.00,,,0.00,weatherlink.com 1.10,2013-03-14 18:17:00,
2013-03-14 10:32:00,-2.1,-15.0,30.34,NW,318,0.0,1.0,53,0.00,,,0.00,weatherlink.com 1.10,2013-03-14 18:32:00,
2013-03-14 10:47:00,-0.3,-15.0,30.34,West,274,0.0,2.0,51,0.00,,,0.00,weatherlink.com 1.10,2013-03-14 18:47:00,
2013-03-14 11:02:00,0.8,-14.0,30.34,WSW,242,0.0,1.0,50,0.00,,,0.00,weatherlink.com 1.10,2013-03-14 19:02:00,
2013-03-14 11:33:00,3.5,-12.0,30.34,ESE,110,1.0,3.0,49,0.00,,,0.00,weatherlink.com 1.10,2013-03-14 19:33:00,
2013-03-14 11:48:00,5.1,-10.0,30.34,ESE,113,1.0,2.0,49,0.00,,,0.00,weatherlink.com 1.10,2013-03-14 19:48:00,
2013-03-14 12:03:00,6.6,-11.0,30.34,ESE,112,1.0,4.0,44,0.00,,,0.00,weatherlink.com 1.10,2013-03-14 20:03:00,
2013-03-14 12:18:00,8.3,-11.0,30.35,East,81,0.0,3.0,41,0.00,,,0.00,weatherlink.com 1.10,2013-03-14 20:18:00,
2013-03-14 12:33:00,9.0,-9.0,30.34,SSE,155,0.0,2.0,44,0.00,,,0.00,weatherlink.com 1.10,2013-03-14 20:33:00,
2013-03-14 12:48:00,10.1,-9.0,30.34,SSW,198,0.0,6.0,41,0.00,,,0.00,weatherlink.com 1.10,2013-03-14 20:48:00,
2013-03-14 13:03:00,11.4,-8.0,30.34,ESE,115,2.0,3.0,41,0.00,,,0.00,weatherlink.com 1.10,2013-03-14 21:03:00,
2013-03-14 13:18:00,12.6,-8.0,30.34,ESE,107,1.0,5.0,40,0.00,,,0.00,weatherlink.com 1.10,2013-03-14 21:18:00,
2013-03-14 13:33:00,14.0,-8.0,30.34,East,98,2.0,3.0,37,0.00,,,0.00,weatherlink.com 1.10,2013-03-14 21:33:00,
2013-03-14 13:48:00,14.7,-6.0,30.34,ESE,122,0.0,3.0,40,0.00,,,0.00,weatherlink.com 1.10,2013-03-14 21:48:00,
2013-03-14 14:03:00,15.2,-6.0,30.34,East,79,0.0,5.0,39,0.00,,,0.00,weatherlink.com 1.10,2013-03-14 22:03:00,
2013-03-14 14:18:00,15.8,-7.0,30.34,East,93,2.0,5.0,35,0.00,,,0.00,weatherlink.com 1.10,2013-03-14 22:18:00,
2013-03-14 14:49:00,16.8,-7.0,30.33,ESE,109,1.0,3.0,34,0.00,,,0.00,weatherlink.com 1.10,2013-03-14 22:49:00,
2013-03-14 15:04:00,17.2,-7.0,30.33,ESE,110,0.0,3.0,34,0.00,,,0.00,weatherlink.com 1.10,2013-03-14 23:04:00,
2013-03-14 15:19:00,17.1,-7.0,30.33,ESE,110,0.0,2.0,34,0.00,,,0.00,weatherlink.com 1.10,2013-03-14 23:19:00,
2013-03-14 15:34:00,17.0,-6.0,30.33,SW,225,0.0,5.0,36,0.00,,,0.00,weatherlink.com 1.10,2013-03-14 23:34:00,
2013-03-14 15:49:00,17.5,-6.0,30.32,East,98,2.0,3.0,35,0.00,,,0.00,weatherlink.com 1.10,2013-03-14 23:49:00,
2013-03-14 16:04:00,17.7,-5.0,30.32,East,93,0.0,4.0,36,0.00,,,0.00,weatherlink.com 1.10,2013-03-15 00:04:00,
2013-03-14 16:19:00,16.8,-7.0,30.32,East,97,5.0,5.0,34,0.00,,,0.00,weatherlink.com 1.10,2013-03-15 00:19:00,
2013-03-14 16:34:00,16.7,-7.0,30.32,WNW,298,2.0,3.0,35,0.00,,,0.00,weatherlink.com 1.10,2013-03-15 00:34:00,
2013-03-14 16:49:00,16.2,-7.0,30.33,SSW,200,0.0,4.0,35,0.00,,,0.00,weatherlink.com 1.10,2013-03-15 00:49:00,
2013-03-14 17:04:00,15.3,-7.0,30.34,WSW,242,0.0,4.0,37,0.00,,,0.00,weatherlink.com 1.10,2013-03-15 01:04:00,
2013-03-14 17:19:00,14.5,-7.0,30.34,SSE,150,0.0,3.0,38,0.00,,,0.00,weatherlink.com 1.10,2013-03-15 01:19:00,
2013-03-14 17:34:00,13.6,-7.0,30.34,ENE,78,2.0,5.0,40,0.00,,,0.00,weatherlink.com 1.10,2013-03-15 01:34:00,
2013-03-14 17:50:00,12.7,-7.0,30.34,South,188,0.0,3.0,41,0.00,,,0.00,weatherlink.com 1.10,2013-03-15 01:50:00,
2013-03-14 18:05:00,12.0,-7.0,30.34,SE,124,0.0,3.0,43,0.00,,,0.00,weatherlink.com 1.10,2013-03-15 02:05:00,
2013-03-14 18:20:00,11.4,-8.0,30.34,ESE,113,0.0,5.0,41,0.00,,,0.00,weatherlink.com 1.10,2013-03-15 02:20:00,
2013-03-14 18:35:00,10.6,-9.0,30.34,East,90,3.0,6.0,41,0.00,,,0.00,weatherlink.com 1.10,2013-03-15 02:35:00,
2013-03-14 18:50:00,9.7,-8.0,30.33,East,85,3.0,5.0,45,0.00,,,0.00,weatherlink.com 1.10,2013-03-15 02:50:00,
2013-03-14 19:05:00,8.5,-8.0,30.33,ESE,102,2.0,4.0,47,0.00,,,0.00,weatherlink.com 1.10,2013-03-15 03:05:00,
2013-03-14 19:20:00,7.7,-9.0,30.34,East,95,2.0,4.0,46,0.00,,,0.00,weatherlink.com 1.10,2013-03-15 03:20:00,
2013-03-14 19:35:00,6.7,-10.0,30.34,East,82,0.0,2.0,46,0.00,,,0.00,weatherlink.com 1.10,2013-03-15 03:35:00,
2013-03-14 19:50:00,5.8,-10.0,30.34,East,100,2.0,3.0,49,0.00,,,0.00,weatherlink.com 1.10,2013-03-15 03:50:00,
2013-03-14 20:05:00,5.2,-10.0,30.35,East,94,2.0,3.0,49,0.00,,,0.00,weatherlink.com 1.10,2013-03-15 04:05:00,
2013-03-14 20:20:00,4.7,-10.0,30.35,East,94,0.0,2.0,51,0.00,,,0.00,weatherlink.com 1.10,2013-03-15 04:20:00,
2013-03-14 20:35:00,4.0,-11.0,30.35,East,94,1.0,2.0,50,0.00,,,0.00,weatherlink.com 1.10,2013-03-15 04:35:00,
2013-03-14 20:50:00,3.2,-11.0,30.35,South,190,0.0,2.0,51,0.00,,,0.00,weatherlink.com 1.10,2013-03-15 04:50:00,
2013-03-14 21:05:00,2.5,-11.0,30.35,SSW,203,0.0,1.0,54,0.00,,,0.00,weatherlink.com 1.10,2013-03-15 05:05:00,
2013-03-14 21:21:00,1.9,-11.0,30.35,East,93,0.0,1.0,56,0.00,,,0.00,weatherlink.com 1.10,2013-03-15 05:21:00,
2013-03-14 21:36:00,1.3,-11.0,30.35,East,94,0.0,1.0,56,0.00,,,0.00,weatherlink.com 1.10,2013-03-15 05:36:00,
2013-03-14 21:51:00,0.5,-12.0,30.35,East,95,0.0,0.0,57,0.00,,,0.00,weatherlink.com 1.10,2013-03-15 05:51:00,
2013-03-14 22:06:00,0.2,-11.0,30.36,East,95,0.0,1.0,60,0.00,,,0.00,weatherlink.com 1.10,2013-03-15 06:06:00,
2013-03-14 22:21:00,0.0,-12.0,30.35,NW,326,0.0,1.0,58,0.00,,,0.00,weatherlink.com 1.10,2013-03-15 06:21:00,
2013-03-14 22:36:00,-0.1,-12.0,30.35,West,262,0.0,2.0,56,0.00,,,0.00,weatherlink.com 1.10,2013-03-15 06:36:00,
2013-03-14 23:06:00,0.0,-13.0,30.36,NNW,342,0.0,1.0,53,0.00,,,0.00,weatherlink.com 1.10,2013-03-15 07:06:00,
2013-03-14 23:21:00,-0.1,-13.0,30.36,North,349,0.0,1.0,54,0.00,,,0.00,weatherlink.com 1.10,2013-03-15 07:21:00,
2013-03-14 23:51:00,0.4,-13.0,30.35,North,6,0.0,1.0,53,0.00,,,0.00,weatherlink.com 1.10,2013-03-15 07:51:00,